星链-4347 (STARLINK-4347 )

导读

STARLINK-4347是美国SpaceX公司星链(Starlink)低轨互联网星座中的一颗卫星,于2022年7月11日发射入轨。星链计划旨在构建覆盖全球的高速低延迟卫星互联网,该卫星运行于近地轨道,配备相控阵天线与激光通信终端,可为全球尤其是偏远区域提供宽带互联网接入,支撑视频通话、在线服务等应用,是星链大规模组网中的一员,助力实现全球无缝网络覆盖的星座目标。

基本信息
目录编号:
53076
目录名称:
STARLINK-4347
国际标识:
2022-077AK
轨道中心:
EARTH
卫星名称:
星链-4347
卫星全名:
星链-4347 (STARLINK-4347 )
卫星状态:
在轨 (已飞行1524 天)
发射日期:
2022-07-11 UTC
国别 :
美国 (US)
星等 :
--
该卫星已列入 空间交会检测服务 Space Conjunction Data Service (SCDS) ,当前飞行风险评估等级: 无高风险
轨道信息
数据来源 国际轨道数据
星历时间: 2026-09-12T09:02:32+0800
8小时前
查看轨道信息
半长轴: 6843.713km
偏心率: 0.0001494
轨道倾角: 97.285°
近地点辐角 95.829°
升交点赤经 69.910°
平近点角 264.313°
近地点: 464.553km
远地点: 466.599km
周期: 93.907分钟
每日圈数: 15.334342
详细信息
固有亮度:
5
最大亮度:
2.5
卫星平台:
Starlink v1.5
覆盖范围:
全球
运营商:
太空探索技术公司
运营商所在国:
美国
制造商(研发单位):
太空探索技术公司
制造商所在国:
美国
使用方式:
暂无
卫星简介
星链(Starlink)计划是由太空探索技术公司(SpaceX)提出的一个巨型低轨卫星互联网星座项目,计划在2019年至2024年间在太空搭建由约1.2万颗卫星组成的“星链”网络,其中1584颗将部署在地球上空550千米处的近地轨道,并从2020年开始工作。该卫星仍在工作。
2D轨道图
3D轨道图
轨道高度分析图
轨道倾角分析图
轨道综合分析图
查看轨道综合分析图
交会数据列表
事件ID 空间交会对象 最接近时刻(TCA) 交会距离 交会风险概率(CRP) 交会风险指数(CRI) 操作
CDM_260914-203605-230205-307621
2026-09-14T
20:36:13+0000
2.919 km
极远距离
1.310945E-6 低风险 0.37
与全量物体交会距离演化趋势
与全量物体交会风险概率演化趋势